Сайхун

Узбекистан     40°42′20″N   68°50′16″E
темп.,
°C
ветер,
м/с
пор.,
м/с
влажн.,
%
обл.,
%
осадки,
мм/ч
давл.,
гПа
погр.,
м
13 мая, чт
чт1323:00+20ссз49450 0.0 1012238
02:00+17сз34480 0.0 101181
05:00+15зюз34492 0.0 101259
08:00+19юз23350 0.0 1013445
11:00+25юз22260 0.0 1012937
14:00+29сз12230 0.0 10111629
17:00+29сз34230 0.0 10102305
20:00+23ссз48360 0.0 1011188
14 мая, пт
пт1423:00+19сз35330 0.0 101196
02:00+17юз35320 0.0 101179
05:00+15ю33390 0.0 101148
08:00+20ю44280 0.0 1013413
11:00+26ююз11210 0.0 1012886
14:00+30ссз22200 0.0 10111575
17:00+30сз33212 0.0 10092153
20:00+23ссз48370 0.0 1010158
15 мая, сб
сб1523:00+19з22410 0.0 100929
02:00+18ююз36450 0.0 1009101
05:00+16ю45500 0.0 101093
08:00+20ююз34360 0.0 1011501
11:00+26юз22260 0.0 1010862
14:00+31с11210 0.0 10091458
17:00+31с33210 0.0 10071811
20:00+26сз22300 0.0 100818
16 мая, вс
вс1623:00+22ссв33400 0.0 100744
02:00+20сз22470 0.0 100712
05:00+18зюз33510 0.0 100839
08:00+23зюз22340 0.0 1010353
11:00+29з21240 0.0 1009848
14:00+32сз34190 0.0 10081997
17:00+33сз44150 0.0 10072365
20:00+26зсз22260 0.0 100712
17 мая, пн
пн1723:00+24св11330 0.0 100811
02:00+22ююв01340 0.0 100711
05:00+20вюв11390 0.0 100811
08:00+26ююв12310 0.0 1009266
11:00+32ю22180 0.0 10091523
14:00+36сз14120 0.0 10073573
17:00+35ссз44120 0.0 10063273
20:00+28св33160 0.0 100629